EW1440 Weather Reports


time (UTC)temp
F
wind
direction
speed
knots
gust
knots
rain 1hr
in
rain 24hr
in
rain mn
in
humidity
%
barometer
mb
20260508211543 77 146 4.3 11.3 0.00 0.00 0.00 76 1009.8
20260508211034 77 133 5.2 11.3 0.00 0.00 0.00 77 1009.9
20260508210534 77 118 4.3 8.7 0.00 0.00 0.00 78 1009.9
20260508210048 76 168 5.2 9.6 0.00 0.00 0.00 78 1010.1
20260508205533 75 153 4.3 9.6 0.00 0.00 0.00 79 1010.1
20260508205034 75 164 5.2 10.4 0.00 0.00 0.00 80 1010.2
20260508204551 75 141 6.1 10.4 0.00 0.00 0.00 79 1010.4
20260508204033 75 149 5.2 10.4 0.00 0.00 0.00 79 1010.4
20260508203533 76 191 4.3 10.4 0.00 0.00 0.00 80 1010.4
20260508203054 76 168 5.2 10.4 0.00 0.00 0.00 79 1010.5
20260508202535 76 110 3.5 8.7 0.00 0.00 0.00 79 1010.4
20260508202033 76 161 5.2 8.7 0.00 0.00 0.00 78 1010.5
20260508201556 76 133 5.2 8.7 0.00 0.00 0.00 80 1010.6
20260508201034 76 154 4.3 10.4 0.00 0.00 0.00 79 1010.4
20260508200533 76 185 4.3 10.4 0.00 0.00 0.00 76 1010.4
20260508200100 78 140 5.2 10.4 0.00 0.00 0.00 75 1010.4
20260508195534 78 132 1.7 7.8 0.00 0.00 0.00 77 1010.5
20260508195034 77 131 3.5 7.0 0.00 0.00 0.00 77 1010.5
20260508194545 77 131 2.6 7.0 0.00 0.00 0.00 78 1010.4
20260508194035 76 157 2.6 7.8 0.00 0.00 0.00 78 1010.5
20260508193535 76 113 2.6 7.8 0.00 0.00 0.00 79 1010.5
20260508193054 76 140 3.5 9.6 0.00 0.00 0.00 79 1010.6
20260508192534 75 133 4.3 9.6 0.00 0.00 0.00 78 1010.7
20260508192034 75 154 5.2 9.6 0.00 0.00 0.00 80 1010.7
20260508191552 75 87 2.6 8.7 0.00 0.00 0.00 77 1010.7
20260508191038 76 102 2.6 9.6 0.00 0.00 0.00 77 1010.8
20260508190535 77 131 6.1 9.6 0.00 0.00 0.00 77 1010.8
20260508190052 76 127 3.5 7.8 0.00 0.00 0.00 78 1010.8
20260508185531 75 148 4.3 7.8 0.00 0.00 0.00 79 1010.9
20260508185030 75 119 2.6 9.6 0.00 0.00 0.00 81 1011.0
20260508184548 74 114 1.7 9.6 0.00 0.00 0.00 80 1011.2
20260508184038 75 113 3.5 9.6 0.00 0.00 0.00 78 1011.3
20260508183537 76 140 3.5 8.7 0.00 0.00 0.00 78 1011.2
20260508183049 75 133 2.6 8.7 0.00 0.00 0.00 82 1011.3
20260508182535 74 89 3.5 8.7 0.00 0.00 0.00 82 1011.3
20260508182034 74 149 2.6 9.6 0.00 0.00 0.00 80 1011.4
20260508181607 73 124 2.6 9.6 0.00 0.00 0.00 80 1011.5
20260508181036 73 119 1.7 7.0 0.00 0.00 0.00 81 1011.5
20260508180534 73 135 1.7 7.0 0.00 0.00 0.00 80 1011.6
20260508180104 74 82 3.5 8.7 0.00 0.00 0.00 79 1011.6
20260508175534 74 113 1.7 8.7 0.00 0.00 0.00 81 1011.7
20260508175035 73 72 3.5 8.7 0.00 0.00 0.00 82 1011.7
20260508174546 73 58 3.5 8.7 0.00 0.00 0.00 81 1011.8
20260508174036 72 142 2.6 7.0 0.00 0.00 0.00 83 1011.9
20260508173533 71 143 3.5 7.0 0.00 0.00 0.00 84 1012.0
20260508173050 71 135 2.6 5.2 0.00 0.00 0.00 84 1012.2
20260508172534 70 116 2.6 6.1 0.00 0.00 0.00 86 1012.4
20260508172035 70 0 0.9 6.1 0.00 0.00 0.00 84 1012.4
20260508171544 70 163 1.7 6.1 0.00 0.00 0.00 84 1012.5
20260508171034 70 0 1.7 6.1 0.00 0.00 0.00 83 1012.5
20260508170534 70 97 3.5 6.1 0.00 0.00 0.00 85 1012.5
20260508170046 69 40 1.7 6.1 0.00 0.00 0.00 85 1012.6
20260508165535 68 76 1.7 6.1 0.00 0.00 0.00 86 1012.8
20260508165035 68 78 0.9 6.1 0.00 0.00 0.00 86 1013.0
20260508164554 68 52 0.0 5.2 0.00 0.00 0.00 86 1013.1
20260508164034 68 0 1.7 6.1 0.00 0.00 0.00 86 1013.0
20260508163533 68 57 1.7 6.1 0.00 0.00 0.00 87 1013.0
20260508163048 68 29 2.6 4.3 0.00 0.00 0.00 87 1013.0
20260508162534 67 26 0.0 3.5 0.00 0.00 0.00 86 1013.1
20260508162034 67 352 0.0 4.3 0.00 0.00 0.00 87 1013.2
20260508161547 67 70 1.7 6.1 0.00 0.00 0.00 87 1013.2
20260508161031 67 43 0.9 6.1 0.00 0.00 0.00 88 1013.1
20260508160533 67 53 3.5 6.1 0.00 0.00 0.00 88 1013.1
20260508160047 67 340 1.7 3.5 0.00 0.00 0.00 86 1013.2
20260508155534 66 58 1.7 4.3 0.00 0.00 0.00 87 1013.2
20260508155030 66 29 0.9 4.3 0.00 0.00 0.00 88 1013.2
20260508154553 66 119 2.6 4.3 0.00 0.00 0.00 88 1013.3
20260508154033 65 340 1.7 5.2 0.00 0.00 0.00 88 1013.4
20260508153534 65 23 2.6 7.0 0.00 0.00 0.00 88 1013.5
20260508153051 66 353 3.5 7.0 0.00 0.00 0.00 89 1013.5
20260508152535 65 345 2.6 4.3 0.00 0.00 0.00 89 1013.6
20260508152033 65 35 1.7 3.5 0.00 0.00 0.00 90 1013.7
20260508151549 64 32 1.7 3.5 0.00 0.00 0.00 89 1013.8
20260508151034 64 357 0.9 3.5 0.00 0.00 0.00 88 1014.0
20260508150535 64 34 1.7 3.5 0.00 0.00 0.00 89 1014.1
20260508150046 64 60 1.7 3.5 0.00 0.00 0.00 88 1014.0
20260508145535 64 69 1.7 3.5 0.00 0.00 0.00 88 1013.9
20260508145033 64 42 1.7 4.3 0.00 0.00 0.00 88 1013.9
20260508144547 64 58 1.7 4.3 0.00 0.00 0.00 88 1014.1
20260508144033 64 29 2.6 6.1 0.00 0.00 0.00 88 1013.9
20260508143534 63 351 0.9 6.1 0.00 0.00 0.00 89 1014.1
20260508143045 63 26 1.7 6.1 0.00 0.00 0.00 89 1014.0
20260508142533 63 19 1.7 6.1 0.00 0.00 0.00 88 1013.9
20260508142033 63 72 3.5 6.1 0.00 0.00 0.00 88 1014.0
20260508141604 63 91 1.7 7.8 0.00 0.00 0.00 89 1014.1
20260508141033 63 73 3.5 7.8 0.00 0.00 0.00 89 1014.1
20260508140533 63 66 4.3 7.8 0.00 0.00 0.00 89 1014.0
20260508140058 63 27 2.6 6.1 0.00 0.00 0.00 89 1014.0
20260508135534 63 124 1.7 4.3 0.00 0.00 0.00 89 1013.9
20260508135034 63 35 1.7 3.5 0.00 0.00 0.00 89 1014.0
20260508134548 63 103 0.0 3.5 0.00 0.00 0.00 89 1014.2
20260508134033 63 103 1.7 3.5 0.00 0.00 0.00 89 1014.0
20260508133534 63 109 0.0 2.6 0.00 0.00 0.00 89 1014.0
20260508133049 63 0 0.9 3.5 0.00 0.00 0.00 89 1014.0
20260508132533 63 108 0.9 3.5 0.00 0.00 0.00 89 1014.0
20260508132033 63 133 1.7 6.1 0.00 0.00 0.00 89 1013.9
20260508131558 63 131 1.7 7.0 0.00 0.00 0.00 89 1013.7
20260508131034 63 103 2.6 7.0 0.00 0.00 0.00 89 1013.5
20260508130533 63 75 3.5 7.0 0.00 0.00 0.00 89 1013.2
20260508130050 63 91 2.6 5.2 0.00 0.00 0.00 89 1013.2
20260508125533 63 112 0.9 4.3 0.00 0.00 0.00 89 1013.2
20260508125034 63 112 0.9 4.3 0.00 0.00 0.00 89 1013.3
20260508124551 63 72 1.7 3.5 0.00 0.00 0.00 89 1013.2
20260508124034 63 80 2.6 3.5 0.00 0.00 0.00 88 1013.4
20260508123537 63 44 1.7 3.5 0.00 0.00 0.00 88 1013.4
20260508123051 63 330 0.0 1.7 0.00 0.00 0.00 88 1013.6
20260508122533 63 330 0.0 2.6 0.00 0.00 0.00 88 1013.6
20260508122035 63 330 0.0 3.5 0.00 0.00 0.00 88 1013.8
20260508121552 63 65 0.9 4.3 0.00 0.00 0.00 87 1014.0
20260508121034 63 64 1.7 4.3 0.00 0.00 0.00 87 1013.9
20260508120535 63 74 1.7 3.5 0.00 0.00 0.00 87 1013.7
20260508120056 63 350 0.9 4.3 0.00 0.00 0.00 87 1014.0
20260508115533 63 331 0.9 7.8 0.00 0.00 0.00 87 1014.1
20260508115034 63 56 3.5 7.8 0.00 0.00 0.00 87 1013.9
20260508114549 63 35 0.9 3.5 0.00 0.00 0.00 86 1013.9
20260508114033 63 73 1.7 3.5 0.00 0.00 0.00 86 1013.7
20260508113534 63 43 1.7 2.6 0.00 0.00 0.00 86 1013.9
20260508113057 63 0 0.9 2.6 0.00 0.00 0.00 86 1013.9
20260508112533 63 312 0.0 3.5 0.00 0.00 0.00 86 1014.2
20260508112033 63 0 0.9 3.5 0.00 0.00 0.00 85 1014.0
20260508111556 63 332 0.9 3.5 0.00 0.00 0.00 85 1013.9
20260508111035 63 332 1.7 5.2 0.00 0.00 0.00 85 1013.7
20260508110536 63 276 0.9 6.1 0.00 0.00 0.00 85 1013.8
20260508110058 63 301 2.6 6.1 0.00 0.00 0.00 85 1013.6
20260508105536 63 351 3.5 5.2 0.00 0.00 0.00 84 1013.7
20260508105034 63 340 0.9 5.2 0.00 0.00 0.00 84 1013.9
20260508104546 63 325 1.7 5.2 0.00 0.00 0.00 84 1013.7
20260508104033 63 12 2.6 5.2 0.00 0.00 0.00 84 1013.7
20260508103533 63 326 2.6 7.8 0.00 0.00 0.00 83 1013.8
20260508103055 63 345 1.7 7.8 0.00 0.00 0.00 84 1013.9
20260508102533 63 72 4.3 7.0 0.00 0.00 0.00 83 1013.4
20260508102035 63 84 3.5 6.1 0.00 0.00 0.00 83 1013.8
20260508101544 63 58 0.9 4.3 0.00 0.00 0.00 83 1014.1
20260508101035 63 12 0.9 5.2 0.00 0.00 0.00 83 1014.1
20260508100534 63 0 1.7 6.1 0.00 0.00 0.00 83 1013.9
20260508100048 63 58 2.6 6.1 0.00 0.00 0.00 83 1013.6
20260508095534 64 33 1.7 3.5 0.00 0.00 0.00 82 1013.7
20260508095033 64 0 0.9 3.5 0.00 0.00 0.00 82 1013.7
20260508094604 64 78 1.7 3.5 0.00 0.00 0.00 82 1013.6
20260508094033 64 330 0.0 1.7 0.00 0.00 0.00 81 1013.9
20260508093533 64 331 0.0 2.6 0.00 0.00 0.00 81 1014.1
20260508093046 64 331 0.0 2.6 0.00 0.00 0.00 81 1014.2
20260508092535 64 352 0.9 3.5 0.00 0.00 0.00 80 1014.1
20260508092033 64 22 0.9 4.3 0.00 0.00 0.00 80 1013.9
20260508091545 64 40 1.7 7.0 0.00 0.00 0.00 80 1013.9
20260508091033 64 29 1.7 9.6 0.00 0.00 0.00 79 1013.9
20260508090532 64 62 2.6 9.6 0.00 0.00 0.00 79 1013.7
20260508085534 64 106 2.6 6.1 0.00 0.00 0.00 78 1013.4
20260508085033 64 81 2.6 5.2 0.00 0.00 0.00 78 1013.7
20260508084548 64 16 2.6 7.0 0.00 0.00 0.00 77 1014.0
20260508084034 64 50 0.9 7.0 0.00 0.00 0.00 77 1014.0
20260508083534 64 54 3.5 7.0 0.00 0.00 0.00 77 1013.8
20260508083107 64 63 2.6 6.1 0.00 0.00 0.00 77 1014.0
20260508082608 64 45 1.7 5.2 0.00 0.00 0.00 76 1014.3
20260508082035 64 52 2.6 6.1 0.00 0.00 0.00 76 1014.1
20260508081547 64 60 2.6 6.1 0.00 0.00 0.00 76 1014.0
20260508081038 64 51 3.5 7.0 0.00 0.00 0.00 75 1014.0
20260508080535 64 45 2.6 7.0 0.00 0.00 0.00 75 1013.9
20260508080052 64 82 1.7 5.2 0.00 0.00 0.00 75 1014.0
20260508075533 64 46 1.7 5.2 0.00 0.00 0.00 75 1014.3
20260508075032 64 31 1.7 6.1 0.00 0.00 0.00 74 1014.3
20260508074553 64 51 2.6 6.1 0.00 0.00 0.00 74 1014.2
20260508074033 64 85 1.7 6.1 0.00 0.00 0.00 74 1014.3
20260508073534 64 72 2.6 6.1 0.00 0.00 0.00 74 1014.7
20260508073048 64 62 2.6 6.1 0.00 0.00 0.00 75 1014.5
20260508072533 65 70 1.7 7.8 0.00 0.00 0.00 75 1014.6
20260508072036 65 122 0.9 7.8 0.00 0.00 0.00 74 1014.8
20260508071548 65 0 3.5 7.8 0.00 0.00 0.00 74 1015.1
20260508071033 65 81 1.7 5.2 0.00 0.00 0.00 75 1014.9
20260508070533 65 99 1.7 2.6 0.00 0.00 0.00 75 1014.7
20260508070044 65 83 0.0 1.7 0.00 0.00 0.00 74 1015.0
20260508065533 65 0 0.0 1.7 0.00 0.00 0.00 74 1015.0
20260508065033 65 0 0.0 1.7 0.00 0.00 0.00 74 1014.9
20260508064551 65 0 0.0 1.7 0.00 0.00 0.00 74 1014.9
20260508064034 65 0 0.0 0.9 0.00 0.00 0.00 74 1015.0
20260508063534 65 83 0.0 0.9 0.00 0.00 0.00 74 1015.0
20260508063047 65 0 0.0 0.9 0.00 0.00 0.00 73 1015.0
20260508062533 65 0 0.0 0.9 0.00 0.00 0.00 73 1015.1
20260508062033 65 0 0.0 1.7 0.00 0.00 0.00 73 1015.2
20260508061554 65 0 0.0 2.6 0.00 0.00 0.00 73 1015.2
20260508061034 65 83 0.0 2.6 0.00 0.00 0.00 73 1014.9
20260508060533 65 83 0.9 3.5 0.00 0.00 0.00 73 1014.7
20260508060047 65 0 0.0 5.2 0.00 0.00 0.00 73 1014.7
20260508055534 65 70 0.9 5.2 0.00 0.00 0.00 72 1014.6
20260508055034 65 66 2.6 7.0 0.00 0.00 0.00 72 1014.4
20260508054544 65 137 1.7 8.7 0.00 0.00 0.00 72 1014.4
20260508054035 65 54 3.5 8.7 0.00 0.00 0.00 72 1014.2
20260508053534 65 62 4.3 7.8 0.00 0.00 0.00 72 1013.9
20260508053048 65 69 3.5 7.8 0.00 0.00 0.00 73 1014.1
20260508052534 65 67 0.9 5.2 0.00 0.00 0.00 73 1015.0
20260508052036 65 89 1.7 3.5 0.00 0.00 0.00 73 1014.7
20260508051553 65 0 0.0 3.5 0.00 0.00 0.00 72 1015.4
20260508051034 65 0 0.0 3.5 0.00 0.00 0.00 72 1015.8
20260508050534 65 294 1.7 3.5 0.00 0.00 0.00 71 1016.0
20260508050048 65 324 0.0 0.9 0.00 0.00 0.00 72 1016.0
20260508045533 65 0 0.0 0.9 0.00 0.00 0.00 71 1015.8
20260508045033 65 0 0.0 0.0 0.00 0.00 0.00 71 1015.7
20260508044546 65 0 0.0 2.6 0.00 0.00 0.00 71 1015.6
20260508044041 65 0 0.0 3.5 0.00 0.00 0.00 71 1015.4
20260508043533 65 318 0.9 4.3 0.00 0.00 0.00 70 1015.5
20260508043050 65 306 1.7 5.2 0.00 0.00 0.00 70 1015.6
20260508042534 65 315 1.7 6.1 0.00 0.00 0.00 70 1015.7
20260508042035 65 294 3.5 6.1 0.00 0.00 0.00 69 1015.8
20260508041550 65 303 1.7 5.2 0.00 0.00 0.00 70 1015.6
20260508041033 66 93 2.6 5.2 0.00 0.00 0.00 70 1014.8
20260508040534 66 101 0.9 7.0 0.00 0.00 0.00 69 1014.4
20260508040051 66 60 1.7 7.8 0.00 0.00 0.00 69 1014.2
20260508035535 66 95 3.5 7.8 0.00 0.00 0.00 69 1013.8
20260508035034 66 95 2.6 11.3 0.00 0.00 0.00 68 1014.0
20260508034551 66 75 5.2 11.3 0.00 0.00 0.00 68 1013.9
20260508034033 66 71 6.1 10.4 0.00 0.00 0.00 68 1013.7
20260508033533 66 85 4.3 8.7 0.00 0.00 0.00 68 1014.0
20260508033048 66 62 6.1 9.6 0.00 0.00 0.00 68 1014.2
20260508032534 66 69 5.2 9.6 0.00 0.00 0.00 69 1014.2
20260508032034 66 51 3.5 9.6 0.00 0.00 0.00 70 1014.6
20260508031551 66 24 2.6 7.0 0.00 0.00 0.00 71 1014.7
20260508031032 66 73 3.5 7.0 0.00 0.00 0.00 72 1014.6
20260508030532 66 78 3.5 7.0 0.00 0.00 0.00 73 1014.8
20260508030051 66 71 2.6 6.1 0.00 0.00 0.00 74 1015.1
20260508025537 67 60 1.7 3.5 0.00 0.00 0.00 74 1015.2
20260508025033 67 39 0.9 3.5 0.00 0.00 0.00 74 1015.4
20260508024551 66 39 0.9 3.5 0.00 0.00 0.00 74 1015.4
20260508024034 67 10 0.9 3.5 0.00 0.00 0.00 74 1015.3
20260508023533 67 10 0.9 2.6 0.00 0.00 0.00 74 1015.3
20260508023049 67 36 0.9 2.6 0.00 0.00 0.00 74 1015.0
20260508022532 67 11 0.9 2.6 0.00 0.00 0.00 74 1014.8
20260508022032 67 0 0.9 2.6 0.00 0.00 0.00 73 1014.8
20260508021548 67 11 0.0 1.7 0.00 0.00 0.00 73 1015.0
20260508021031 67 11 0.9 2.6 0.00 0.00 0.00 73 1015.0
20260508020530 67 11 0.9 2.6 0.00 0.00 0.00 73 1015.0
20260508020047 67 11 0.9 2.6 0.00 0.00 0.00 72 1015.0
20260508015533 67 11 0.9 2.6 0.00 0.00 0.00 72 1014.8
20260508015034 67 11 0.9 1.7 0.00 0.00 0.00 72 1014.7
20260508014552 67 11 0.0 1.7 0.00 0.00 0.00 71 1014.8
20260508014038 67 11 0.9 1.7 0.00 0.00 0.00 70 1014.6
20260508013533 67 11 0.0 1.7 0.00 0.00 0.00 70 1014.3
20260508013046 67 0 0.9 2.6 0.00 0.00 0.00 70 1014.3
20260508012533 67 11 0.9 2.6 0.00 0.00 0.00 70 1014.4
20260508012033 67 11 1.7 3.5 0.00 0.00 0.00 69 1014.5
20260508011545 67 11 0.9 4.3 0.00 0.00 0.00 68 1014.2
20260508011034 67 30 1.7 4.3 0.00 0.00 0.00 68 1014.2
20260508010537 67 45 2.6 7.0 0.00 0.00 0.00 68 1014.1
20260508010048 67 38 1.7 7.0 0.00 0.00 0.00 67 1014.1
20260508005535 67 40 2.6 6.1 0.00 0.00 0.00 66 1014.0
20260508005032 67 11 2.6 7.8 0.00 0.00 0.00 65 1013.9
20260508004547 67 91 3.5 11.3 0.00 0.00 0.00 65 1013.3
20260508004033 67 89 3.5 13.9 0.00 0.00 0.00 65 1013.0
20260508003532 67 101 4.3 13.9 0.00 0.00 0.00 65 1012.5
20260508003059 68 128 8.7 13.9 0.00 0.00 0.00 65 1012.2
20260508002533 68 81 7.0 15.6 0.00 0.00 0.00 65 1012.1
20260508002035 68 102 7.8 15.6 0.00 0.00 0.00 65 1012.1
20260508001548 68 105 9.6 15.6 0.00 0.00 0.00 65 1012.1
20260508001034 68 76 7.8 14.8 0.00 0.00 0.00 65 1012.1
20260508000536 68 92 8.7 15.6 0.00 0.00 0.00 64 1012.2
20260508000045 68 91 9.6 15.6 0.00 0.00 0.00 64 1012.8
20260507235534 68 70 10.4 14.8 0.00 0.00 0.00 64 1013.2
20260507235032 68 99 7.0 14.8 0.00 0.00 0.00 66 1013.5
20260507234548 68 93 8.7 13.9 0.00 0.00 0.00 65 1013.6
20260507234033 68 81 7.8 13.9 0.00 0.00 0.00 65 1013.7
20260507233533 69 98 8.7 13.0 0.00 0.00 0.00 66 1013.8
20260507233048 69 84 7.8 13.0 0.00 0.00 0.00 65 1014.1
20260507232532 69 88 7.0 10.4 0.00 0.00 0.00 65 1014.2
20260507232033 69 70 5.2 10.4 0.00 0.00 0.00 66 1014.3
20260507231548 69 74 6.1 13.9 0.00 0.00 0.00 66 1014.5
20260507231033 69 52 7.0 13.9 0.00 0.00 0.00 65 1014.7
20260507230533 69 75 7.8 13.9 0.00 0.00 0.00 65 1014.7
20260507230047 69 91 7.0 13.9 0.00 0.00 0.00 66 1014.7
20260507225532 69 51 7.8 12.2 0.00 0.00 0.00 66 1014.7
20260507225031 69 67 7.0 12.2 0.00 0.00 0.00 67 1015.0
20260507224602 69 77 6.1 13.0 0.00 0.00 0.00 67 1015.2
20260507224032 69 83 7.8 13.0 0.00 0.00 0.00 67 1015.2
20260507223532 69 69 7.8 13.0 0.00 0.00 0.00 67 1015.0
20260507223052 69 72 7.8 12.2 0.00 0.00 0.00 67 1014.9
20260507222533 69 69 7.8 13.0 0.00 0.00 0.00 66 1015.2
20260507222035 69 26 6.1 13.0 0.00 0.00 0.00 68 1015.3
20260507221551 69 80 7.8 13.0 0.00 0.00 0.00 68 1015.3
20260507221032 69 65 6.1 11.3 0.00 0.00 0.00 70 1015.4
20260507220537 69 76 7.8 11.3 0.00 0.00 0.00 69 1015.6
20260507220047 69 83 5.2 11.3 0.00 0.00 0.00 71 1015.4
20260507215533 69 91 4.3 11.3 0.00 0.00 0.00 71 1015.6
20260507215033 69 54 7.8 13.0 0.00 0.00 0.00 69 1015.6
20260507214550 70 61 7.8 13.0 0.00 0.00 0.00 69 1015.6
20260507214032 70 49 7.0 13.0 0.00 0.00 0.00 70 1015.4
20260507213534 69 54 5.2 10.4 0.00 0.00 0.00 73 1015.4
20260507213046 69 24 4.3 10.4 0.00 0.00 0.00 72 1015.8
20260507212533 68 22 6.1 10.4 0.00 0.00 0.00 72 1015.4
20260507212032 68 89 4.3 9.6 0.00 0.00 0.00 72 1015.6